Погода в Торки

Великобритания     50°28′21″N   3°32′42″W
темп.,
°C
ветер,
м/с
пор.,
м/с
влажн.,
%
обл.,
%
осадки,
мм/ч
давл.,
гПа
погр.,
м
13 июня, вс
вс1301:00+13ссз45805 0.0 102784
04:00+13ссз33855 0.0 102765
07:00+14с22835 0.0 102887
10:00+16в22845 0.0 1028207
13:00+17вюв238313 0.0 1027259
16:00+17юв238413 0.0 1026233
19:00+17вюв228414 0.0 1025128
22:00+15в118959 0.0 102417
14 июня, пн
пн1401:00+15сз22870 0.0 102411
04:00+14ссз22870 0.0 102217
07:00+16ссз228913 0.0 102257
10:00+18с23815 0.0 1022330
13:00+20ссв137655 0.0 1022554
16:00+19ю1277100 0.0 1022518
19:00+19ссз6880100 0.1 1022391
22:00+15сз488899 0.0 1023185
15 июня, вт
вт1501:00+13сз468795 0.0 1023122
04:00+11ссз4580100 0.0 1023108
07:00+12с4483100 0.0 1023157
10:00+15всв227599 0.0 1023290
13:00+15вюв327698 0.0 1022336
16:00+15юв3278100 0.0 1021320
19:00+15ююв33868 0.0 1019232
22:00+14ю11935 0.0 101826
16 июня, ср
ср1601:00+13зюз11935 0.0 101711
04:00+12ссз11900 0.0 101533
07:00+14сз11882 0.0 101555
10:00+16всв217933 0.0 1014255
13:00+16в218040 0.1 1013256
16:00+17всв217623 0.0 1012262
19:00+18св1270100 0.0 1011181
22:00+15сз1189100 1.6 101152
17 июня, чт
чт1701:00+14ссз4785100 2.9 1011191
04:00+12сз5990100 0.0 1010217
07:00+13сз4787100 0.0 1010218
10:00+17ссз567529 0.0 1010348
13:00+19сз447252 0.0 1011542
16:00+19ссз577575 0.1 1012453
19:00+18с688285 0.1 1012380
22:00+16с4788100 0.1 1014145